Home > Weather > Baton Rouge > Past weeks

Flag for USA Past Weather in Baton Rouge, Louisiana, USA — Yesterday and Last 2 Weeks

Now
75 °F

Passing clouds.


Feels Like: 74 °F
Forecast: 73 / 85 °F
Wind: 6 mph from East

Location: Baton Rouge Metropolitan - Ryan Field

Current Time: May 27, 2016 at 7:35:34 AM

Latest Report: May 27, 2016 at 6:53 AM


Visibility: 10 mi

Pressure: 29.93 "Hg

Humidity: 88%

Dew Point: 71 °F

Location of Baton RougeLocation

Past Weather in Baton Rouge — Graph

°F

Baton Rouge Temperature Yesterday

Maximum temperature yesterday: 89 °F (at 12:53 PM)
Minimum temperature yesterday: 73 °F (at 6:53 AM)
Average temperature yesterday: 80 °F

High & Low Weather Summary for the Past Weeks

 TemperatureHumidityPressure
High91 °F (May 25, 4:53 PM)94% (May 24, 5:53 AM)30.15 "Hg (May 24, 5:53 AM)
Low59 °F (May 14, 3:53 AM)26% (May 14, 2:53 PM)29.79 "Hg (May 20, 12:53 AM)
Average76 °F71%30.01 "Hg
* Reported May 12 5:53 AM — May 27 5:53 AM, Baton Rouge, Weather by CustomWeather, © 2016

Note: Actual official high and low records may vary slightly from our data, if they occured in-between our weather recording intervals... More about our weather records

Advertising

Baton Rouge Weather History for the Previous 24 Hours

Scroll right to see more
 ConditionsComfort  
Time TempWeatherWind HumidityBarometerVisibility
5:53 AM
Fri, May 27
76 °FClear.7 mph85%29.92 "Hg10 mi
4:53 AM76 °FClear.9 mph85%29.91 "Hg10 mi
3:53 AM77 °FPassing clouds.7 mph82%29.91 "Hg10 mi
2:53 AM77 °FPassing clouds.8 mph82%29.93 "Hg10 mi
1:53 AM78 °FClear.9 mph79%29.96 "Hg10 mi
12:53 AM78 °FClear.9 mph76%29.96 "Hg10 mi
11:53 PM
Thu, May 26
78 °FClear.9 mph76%29.96 "Hg10 mi
10:53 PM78 °FPassing clouds.6 mph74%29.98 "Hg10 mi
9:53 PM80 °FPassing clouds.10 mph69%29.99 "Hg10 mi
8:53 PM80 °FSunny.10 mph64%29.97 "Hg10 mi
7:53 PM81 °FSunny.10 mph60%29.97 "Hg10 mi
6:53 PM83 °FSunny.16 mph55%29.95 "Hg10 mi
5:53 PM85 °FPartly sunny.16 mph53%29.96 "Hg10 mi
4:53 PM86 °FMostly cloudy.14 mph51%29.93 "Hg10 mi
3:53 PM86 °FOvercast.10 mph59%29.98 "Hg10 mi
2:53 PM88 °FPartly sunny.12 mph50%30.01 "Hg10 mi
1:53 PM88 °FBroken clouds.13 mph52%30.01 "Hg10 mi
12:53 PM89 °FScattered clouds.7 mph50%30.02 "Hg10 mi
11:53 AM87 °FScattered clouds.9 mph57%30.05 "Hg10 mi
10:55 AM85 °FPartly sunny.10 mph63%30.09 "Hg10 mi
9:53 AM82 °FPartly sunny.8 mph74%30.09 "Hg10 mi
8:57 AM79 °FPartly sunny.9 mph82%30.10 "Hg7 mi
7:53 AM75 °FFog.8 mph90%30.10 "Hg3 mi
Weather by CustomWeather, © 2016

See weather overviewHow to use our weather pages